Regional Weather Roundup
Issued by NWS Albany, NY

Home | Current Version | Previous Version | Graphics & Text | Print | Product List | Glossary Off
Versions: 1 2 3 4 5 6 7 8 9 10 11 12 13 14 15 16 17 18 19 20 21 22 23 24 25 26 27 28 29 30 31 32 33 34 35 36 37 38 39 40 41 42 43 44 45 46 47 48 49 50

000
ASUS41 KALY 230010
RWRALY

NEW YORK STATE HOURLY WEATHER ROUNDUP
NATIONAL WEATHER SERVICE ALBANY NY
700 PM EST WED FEB 22 2017

NOTE: "FAIR" INDICATES FEW OR NO CLOUDS BELOW 12,000 FEET WITH NO
SIGNIFICANT WEATHER AND/OR NO OBSTRUCTIONS TO VISIBILITY.

NYZ032-033-038>043-046>054-057>066-NYZ062>081-082-084-230100-
EAST


CITY           SKY/WX    TMP DP  RH WIND       PRES   REMARKS
ALBANY         PTCLDY    47  34  60 CALM      29.87R
GLENS FALLS    MOCLDY    40  31  70 CALM      29.86R
POUGHKEEPSIE   PTCLDY    47  38  71 CALM      29.89R
NEWBURGH       PTCLDY    48  41  76 CALM      29.90S
MONTGOMERY     MOCLDY    42  37  82 CALM      29.88S
WHITE PLAINS   CLOUDY    46  37  71 CALM      29.90R
ISLIP          CLOUDY    47  43  86 S6        29.92S
NEW YORK CITY  CLOUDY    52  43  71 S10       29.91R
CENTRAL PARK   CLOUDY    53  42  66 S5        29.93S
$$

NYZ005>009-017-018-044>046-055-056-230100-
CENTRAL


CITY           SKY/WX    TMP DP  RH WIND       PRES   REMARKS
FULTON         CLOUDY    51  36  56 SE3       29.81S
SYRACUSE       MOCLDY    48  36  63 E5        29.81S
ROME           MOCLDY    45  35  68 E5        29.84S
ELMIRA         CLOUDY    53  48  83 CALM      29.83S
BINGHAMTON     CLOUDY    52  41  66 SW7       29.85R
MONTICELLO     CLEAR     46  37  71 CALM      29.89S
$$

NYZ026>034-041>043-087-230100-
NORTH


CITY           SKY/WX    TMP DP  RH WIND       PRES   REMARKS
WATERTOWN      CLOUDY    49  40  71 N3        29.79F
FORT DRUM      NOT AVBL
OGDENSBURG     CLOUDY    44  37  75 CALM      29.80S
MASSENA        MOCLDY    38  34  85 CALM      29.82F
SARANAC LAKE   MOCLDY    38  33  82 CALM      29.79F
PLATTSBURGH    CLEAR     39  31  72 W5        29.84F
$$

NYZ001>004-010>016-019>021-085-230100-
WEST


CITY           SKY/WX    TMP DP  RH WIND       PRES   REMARKS
NIAGARA FALLS  CLOUDY    55  50  83 S9        29.78S HAZE
BUFFALO        CLOUDY    53  49  86 SW6       29.80S
DUNKIRK        CLOUDY    56  52  86 S7        29.81S
JAMESTOWN        N/A     52  48  87 S7        29.83S
WELLSVILLE     PTCLDY    53  49  86 S3        29.85S
ROCHESTER      CLOUDY    58  50  75 S5        29.80S
PENN YAN       MOCLDY    59  48  67 SW8       29.82R
$$

             KEY
       WCI = WIND CHILL INDEX
       VSB = VISIBILITY
       HX  = HEAT INDEX
$$



USA.gov is the U.S. government's official web portal to all federal, state and local government web resources and services.